logo
Search for airport 
image banner adimage banner adimage banner ad
image banner ad

EDMOH - Mohorn

Located in , Germany

ICAO - ED0612, IATA -

Data provided by Airmate  

General information

Coordinates: N50°59'53" E13°26'48"
Elevation is 1173 feet MSL.
 
View others Airports in Saxony

Operational data

Special qualification required
Current time UTC:
Current local time:
Weather at : EDDC - Dresden ( 27 km )
METAR: EDDC 301850Z AUTO 17009KT CAVOK 17/11 Q1004 NOSIG
TAF: TAF EDDC 301700Z 3018/3118 15005KT 9999 FEW045 BECMG 3018/3020 21005KT TEMPO 3018/3020 4000 SHRA BKN035CB PROB30 TEMPO 3018/3020 TSRA BKN035CB BECMG 3022/3102 4000 BR BKN008 TEMPO 3100/3106 2500 BR BKN004 BECMG 3105/3108 32005KT 9999 BKN012 BECMG 3108/3111 SCT020 TEMPO 3116/3118 3000 SHRA BKN025CB
View NOTAMs / SUP AIP / TFR affecting this airport [VIEW]
Communications frequencies: [VIEW]

Runways:

RWY identifierQFULength (ft)Width (ft)SurfaceLDA (ft)
0434°111566GRASS
22214°111566GRASS

Airport contact information

Address: Germany

Satellite view of EDMOH